FW2442 Weather Reports


time (UTC)temp
C
wind
direction
speed
KPH
gust
KPH
rain 1hr
cm
rain 24hr
cm
rain mn
cm
humidity
%
barometer
mb
20260901054521 21 118 20.9 29.0 0.00 0.00 0.00 58 1014.3
20260901053522 21 106 20.9 30.6 0.00 0.00 0.00 58 1014.3
20260901052542 21 101 20.9 32.2 0.00 0.00 0.00 57 1014.3
20260901051518 21 121 27.4 37.0 0.00 0.00 0.00 57 1014.4
20260901050517 21 117 25.7 38.6 0.00 0.00 0.00 55 1014.3
20260901045537 21 94 20.9 32.2 0.00 0.00 0.00 52 1014.2
20260901044522 21 122 19.3 32.2 0.00 0.00 0.00 53 1014.3
20260901043537 21 101 17.7 24.1 0.00 0.00 0.00 53 1014.3
20260901042521 20 98 22.5 33.8 0.00 0.00 0.00 55 1014.2
20260901041517 20 106 20.9 27.4 0.00 0.00 0.00 56 1014.2
20260901040521 19 105 20.9 32.2 0.00 0.00 0.00 56 1014.0
20260901035517 19 97 24.1 33.8 0.00 0.00 0.00 56 1014.0
20260901034518 19 110 22.5 27.4 0.00 0.00 0.00 56 1014.0
20260901033520 19 95 24.1 38.6 0.00 0.00 0.00 55 1013.8
20260901032520 18 97 12.9 20.9 0.00 0.00 0.00 56 1013.8
20260901031517 19 104 12.9 25.7 0.00 0.00 0.00 56 1013.7
20260901030522 18 120 17.7 25.7 0.00 0.00 0.00 56 1013.7
20260901025518 18 83 11.3 16.1 0.00 0.00 0.00 57 1013.8
20260901024542 19 163 6.4 11.3 0.00 0.00 0.00 55 1013.8
20260901023516 19 113 9.7 24.1 0.00 0.00 0.00 54 1013.9
20260901022519 19 107 8.0 20.9 0.00 0.00 0.00 55 1013.9
20260901021516 20 137 6.4 14.5 0.00 0.00 0.00 54 1014.0
20260901020521 20 145 11.3 19.3 0.00 0.00 0.00 51 1014.1
20260901015517 21 115 29.0 35.4 0.00 0.00 0.00 50 1014.1
20260901014542 21 108 25.7 33.8 0.00 0.00 0.00 50 1014.2
20260901013517 21 103 29.0 45.1 0.00 0.00 0.00 50 1014.3
20260901012520 21 109 27.4 41.8 0.00 0.00 0.00 50 1014.2
20260901011517 21 75 19.3 33.8 0.00 0.00 0.00 51 1014.2
20260901010520 21 102 17.7 27.4 0.00 0.00 0.00 51 1014.4
20260901005518 21 100 20.9 30.6 0.00 0.00 0.00 52 1014.4
20260901004522 21 104 20.9 35.4 0.00 0.00 0.00 52 1014.4
20260901003538 21 105 19.3 27.4 0.00 0.00 0.00 52 1014.4
20260901002521 21 109 24.1 33.8 0.00 0.00 0.00 52 1014.4
20260901001517 21 114 22.5 33.8 0.00 0.00 0.00 52 1014.4
20260901000541 21 124 17.7 24.1 0.00 0.00 0.00 52 1014.6
20260831235518 22 121 20.9 51.5 0.00 0.00 0.00 51 1014.6
20260831234520 22 121 22.5 37.0 0.00 0.00 0.00 51 1014.7
20260831233517 22 118 24.1 30.6 0.00 0.00 0.00 51 1014.7
20260831232521 22 118 22.5 37.0 0.00 0.00 0.00 51 1014.8
20260831231517 22 125 22.5 38.6 0.00 0.00 0.00 51 1014.9
20260831230517 22 126 24.1 45.1 0.00 0.00 0.00 52 1014.9
20260831225518 22 123 20.9 29.0 0.00 0.00 0.00 52 1015.0
20260831224521 22 122 22.5 45.1 0.00 0.00 0.00 52 1015.1
20260831223517 22 127 20.9 37.0 0.00 0.00 0.00 52 1015.3
20260831222522 22 124 27.4 53.1 0.00 0.00 0.00 53 1015.4
20260831221518 22 125 19.3 35.4 0.00 0.00 0.00 54 1015.4
20260831220516 22 124 19.3 30.6 0.00 0.00 0.00 54 1015.4
20260831215516 22 123 25.7 38.6 0.00 0.00 0.00 55 1015.5
20260831214523 22 119 16.1 33.8 0.00 0.00 0.00 54 1015.5
20260831213517 22 123 17.7 27.4 0.00 0.00 0.00 54 1015.5
20260831212539 22 118 20.9 33.8 0.00 0.00 0.00 53 1015.5
20260831211517 22 120 27.4 41.8 0.00 0.00 0.00 53 1015.5
20260831210541 22 132 20.9 35.4 0.00 0.00 0.00 53 1015.4
20260831205517 23 126 19.3 33.8 0.00 0.00 0.00 52 1015.4
20260831204517 23 123 19.3 40.2 0.00 0.00 0.00 52 1015.3
20260831203518 23 123 19.3 33.8 0.00 0.00 0.00 50 1015.3
20260831202519 23 121 19.3 25.7 0.00 0.00 0.00 50 1015.2
20260831201539 23 116 20.9 30.6 0.00 0.00 0.00 49 1015.1
20260831200519 23 112 17.7 32.2 0.00 0.00 0.00 48 1015.0
20260831195517 24 104 20.9 27.4 0.00 0.00 0.00 48 1014.9
20260831194519 24 109 20.9 27.4 0.00 0.00 0.00 47 1014.8
20260831193537 24 106 19.3 25.7 0.00 0.00 0.00 47 1014.8
20260831192517 24 114 17.7 22.5 0.00 0.00 0.00 47 1014.7
20260831191517 24 114 17.7 24.1 0.00 0.00 0.00 47 1014.7
20260831190522 25 108 17.7 24.1 0.00 0.00 0.00 47 1014.7
20260831185517 25 109 22.5 32.2 0.00 0.00 0.00 47 1014.8
20260831184522 25 108 20.9 27.4 0.00 0.00 0.00 47 1014.8
20260831183518 25 105 20.9 27.4 0.00 0.00 0.00 46 1014.7
20260831182558 25 108 19.3 24.1 0.00 0.00 0.00 46 1014.7
20260831181518 25 109 20.9 24.1 0.00 0.00 0.00 46 1014.7
20260831180521 25 118 17.7 25.7 0.00 0.00 0.00 46 1014.6
20260831175521 25 123 17.7 25.7 0.00 0.00 0.00 46 1014.6
20260831174522 26 119 14.5 24.1 0.00 0.00 0.00 46 1014.5
20260831173516 26 126 12.9 20.9 0.00 0.00 0.00 45 1014.4
20260831172523 26 125 14.5 17.7 0.00 0.00 0.00 45 1014.3
20260831171523 26 112 14.5 20.9 0.00 0.00 0.00 44 1014.1
20260831170522 27 117 14.5 20.9 0.00 0.00 0.00 44 1014.1
20260831165517 27 118 16.1 25.7 0.00 0.00 0.00 43 1014.1
20260831164521 27 116 14.5 24.1 0.00 0.00 0.00 42 1014.0
20260831163517 28 118 12.9 17.7 0.00 0.00 0.00 41 1013.9
20260831162541 28 132 12.9 19.3 0.00 0.00 0.00 40 1013.9
20260831161517 29 130 11.3 17.7 0.00 0.00 0.00 40 1013.9
20260831160521 30 137 12.9 20.9 0.00 0.00 0.00 39 1013.9
20260831155557 30 133 9.7 19.3 0.00 0.00 0.00 38 1014.0
20260831154521 30 129 16.1 27.4 0.00 0.00 0.00 37 1014.0
20260831153517 30 120 29.0 43.5 0.00 0.00 0.00 36 1014.1
20260831152522 31 120 27.4 46.7 0.00 0.00 0.00 36 1014.1
20260831151516 31 127 24.1 46.7 0.00 0.00 0.00 36 1014.0
20260831150521 31 126 25.7 38.6 0.00 0.00 0.00 36 1013.9
20260831145516 31 134 24.1 45.1 0.00 0.00 0.00 36 1014.0
20260831144520 31 126 22.5 48.3 0.00 0.00 0.00 36 1014.0
20260831143556 31 135 24.1 40.2 0.00 0.00 0.00 37 1014.1
20260831142519 31 115 22.5 37.0 0.00 0.00 0.00 35 1014.2
20260831141517 32 148 25.7 45.1 0.00 0.00 0.00 37 1014.2
20260831140518 32 140 20.9 30.6 0.00 0.00 0.00 36 1014.1
20260831135518 32 129 19.3 37.0 0.00 0.00 0.00 36 1014.1
20260831134522 32 118 24.1 35.4 0.00 0.00 0.00 37 1014.2
20260831133522 32 136 19.3 30.6 0.00 0.00 0.00 37 1014.4
20260831132520 32 133 24.1 41.8 0.00 0.00 0.00 37 1014.4
20260831131537 32 122 16.1 27.4 0.00 0.00 0.00 37 1014.4
20260831130541 32 123 17.7 51.5 0.00 0.00 0.00 38 1014.5
20260831125517 32 109 20.9 33.8 0.00 0.00 0.00 38 1014.5
20260831124521 32 138 19.3 45.1 0.00 0.00 0.00 38 1014.7
20260831123517 32 141 17.7 25.7 0.00 0.00 0.00 39 1014.7
20260831122522 32 116 17.7 33.8 0.00 0.00 0.00 39 1014.7
20260831121522 31 125 20.9 35.4 0.00 0.00 0.00 39 1015.0
20260831120542 31 153 20.9 45.1 0.00 0.00 0.00 40 1015.0
20260831115518 31 150 20.9 37.0 0.00 0.00 0.00 41 1015.1
20260831114518 31 115 33.8 48.3 0.00 0.00 0.00 40 1015.2
20260831113518 31 112 29.0 45.1 0.00 0.00 0.00 40 1015.2
20260831112521 31 146 22.5 33.8 0.00 0.00 0.00 41 1015.2
20260831111517 31 147 22.5 54.7 0.00 0.00 0.00 41 1015.3
20260831110541 31 148 35.4 66.0 0.00 0.00 0.00 41 1015.4
20260831105520 31 132 32.2 67.6 0.00 0.00 0.00 41 1015.5
20260831104521 31 117 25.7 48.3 0.00 0.00 0.00 41 1015.6
20260831103536 31 140 29.0 51.5 0.00 0.00 0.00 41 1015.7
20260831102522 30 135 25.7 51.5 0.00 0.00 0.00 42 1015.8
20260831101516 30 151 29.0 54.7 0.00 0.00 0.00 42 1015.9
20260831100520 30 119 30.6 54.7 0.00 0.00 0.00 42 1016.0
20260831095559 30 118 35.4 54.7 0.00 0.00 0.00 42 1016.0
20260831094520 30 115 25.7 51.5 0.00 0.00 0.00 42 1016.0
20260831093519 29 135 29.0 38.6 0.00 0.00 0.00 43 1016.1
20260831092522 29 124 37.0 49.9 0.00 0.00 0.00 43 1016.2
20260831091522 29 126 22.5 43.5 0.00 0.00 0.00 43 1016.1
20260831090520 29 155 30.6 67.6 0.00 0.00 0.00 44 1016.4
20260831085521 28 127 25.7 45.1 0.00 0.00 0.00 44 1016.5
20260831084521 28 137 32.2 48.3 0.00 0.00 0.00 44 1016.6
20260831083517 28 145 25.7 43.5 0.00 0.00 0.00 45 1016.7
20260831082521 28 127 27.4 49.9 0.00 0.00 0.00 45 1016.7
20260831081538 27 154 27.4 41.8 0.00 0.00 0.00 46 1016.8
20260831080558 27 159 25.7 45.1 0.00 0.00 0.00 47 1016.8
20260831075517 27 108 25.7 43.5 0.00 0.00 0.00 49 1016.8
20260831074522 26 126 25.7 45.1 0.00 0.00 0.00 50 1016.8
20260831073522 26 115 19.3 32.2 0.00 0.00 0.00 51 1016.8
20260831072542 26 113 19.3 33.8 0.00 0.00 0.00 51 1016.9
20260831071522 25 117 27.4 41.8 0.00 0.00 0.00 51 1016.9
20260831070521 25 121 27.4 53.1 0.00 0.00 0.00 51 1016.8
20260831065521 25 111 25.7 41.8 0.00 0.00 0.00 53 1016.8
20260831064518 24 120 24.1 35.4 0.00 0.00 0.00 54 1016.8
20260831063517 24 112 20.9 38.6 0.00 0.00 0.00 55 1016.9
20260831062539 23 117 25.7 49.9 0.00 0.00 0.00 55 1016.9
20260831061520 23 118 17.7 30.6 0.00 0.00 0.00 57 1016.9
20260831060542 23 121 17.7 41.8 0.00 0.00 0.00 59 1017.0
20260831055522 22 113 16.1 24.1 0.00 0.00 0.00 62 1017.0